Location: Altleiningen
(49.5078°N, 8.0741°E)
Time: 09:46:22
(UTC+00:00)

Meteor 1-18 Rocket - Pass Details

Date: 03 March 2021
Orbit: 836 x 909 km, 81.2° (Epoch: 12 April)

Event Time Altitude Azimuth Distance (km) Brightness Sun altitude
Rises 17:46:48 0° 350° (N) 3,551 7.5 -6.1°
Reaches altitude 10° 17:49:19 10° 354° (N) 2,607 6.8 -6.5°
Maximum altitude 17:55:13 60° 74° (ENE) 1,033 4.4 -7.5°
Drops below altitude 10° 18:01:02 10° 154° (SSE) 2,577 6.5 -8.4°
Sets 18:03:31 0° 158° (SSE) 3,506 7.2 -8.8°
